| time (UTC) | temp F | wind direction | speed MPH | gust MPH | rain 1hr in | rain 24hr in | rain mn in | humidity % | barometer mb |
| 20260506124900 | 86 | 47 | 3.0 | 5.0 | 0.00 | 0.00 | 0.00 | 89 | |
| 20260506124401 | 86 | 100 | 3.0 | 5.0 | 0.00 | 0.00 | 0.00 | 89 | |
| 20260506123901 | 86 | 128 | 2.0 | 3.0 | 0.00 | 0.00 | 0.00 | 88 | |
| 20260506123401 | 87 | 121 | 4.0 | 7.0 | 0.00 | 0.00 | 0.00 | 88 | |
| 20260506122901 | 87 | 83 | 4.0 | 6.0 | 0.00 | 0.00 | 0.00 | 88 | |
| 20260506122400 | 87 | 105 | 3.0 | 5.0 | 0.00 | 0.00 | 0.00 | 88 | |
| 20260506121900 | 87 | 110 | 5.0 | 6.0 | 0.00 | 0.00 | 0.00 | 88 | |
| 20260506121401 | 87 | 112 | 5.0 | 7.0 | 0.00 | 0.00 | 0.00 | 88 | |
| 20260506120901 | 87 | 135 | 7.0 | 8.0 | 0.00 | 0.00 | 0.00 | 88 | |
| 20260506120401 | 87 | 48 | 3.0 | 6.0 | 0.00 | 0.00 | 0.00 | 88 | |
| 20260506115900 | 87 | 122 | 2.0 | 6.0 | 0.00 | 0.00 | 0.00 | 88 | |
| 20260506115401 | 87 | 116 | 4.0 | 6.0 | 0.00 | 0.00 | 0.00 | 88 | |
| 20260506114901 | 87 | 150 | 4.0 | 6.0 | 0.00 | 0.00 | 0.00 | 88 | |
| 20260506114400 | 87 | 148 | 4.0 | 6.0 | 0.00 | 0.00 | 0.00 | 88 | |
| 20260506113900 | 87 | 127 | 3.0 | 6.0 | 0.00 | 0.00 | 0.00 | 89 | |
| 20260506113401 | 87 | 133 | 2.0 | 3.0 | 0.00 | 0.00 | 0.00 | 89 | |
| 20260506112900 | 87 | 156 | 3.0 | 3.0 | 0.00 | 0.00 | 0.00 | 89 | |
| 20260506112401 | 87 | 124 | 6.0 | 8.0 | 0.00 | 0.00 | 0.00 | 89 | |
| 20260506111901 | 88 | 130 | 4.0 | 6.0 | 0.00 | 0.00 | 0.00 | 88 | |
| 20260506111400 | 88 | 147 | 3.0 | 5.0 | 0.00 | 0.00 | 0.00 | 88 | |
| 20260506110900 | 88 | 129 | 7.0 | 7.0 | 0.00 | 0.00 | 0.00 | 87 | |
| 20260506110400 | 87 | 96 | 5.0 | 7.0 | 0.00 | 0.00 | 0.00 | 88 | |
| 20260506105901 | 87 | 141 | 8.0 | 13.0 | 0.00 | 0.00 | 0.00 | 87 | |
| 20260506105400 | 88 | 107 | 3.0 | 6.0 | 0.00 | 0.00 | 0.00 | 88 | |
| 20260506104900 | 88 | 120 | 3.0 | 5.0 | 0.00 | 0.00 | 0.00 | 87 | |
| 20260506104401 | 88 | 90 | 5.0 | 7.0 | 0.00 | 0.00 | 0.00 | 87 | |
| 20260506103900 | 89 | 114 | 3.0 | 5.0 | 0.00 | 0.00 | 0.00 | 87 | |
| 20260506103400 | 88 | 109 | 5.0 | 7.0 | 0.00 | 0.00 | 0.00 | 87 | |
| 20260506102900 | 88 | 198 | 6.0 | 9.0 | 0.00 | 0.00 | 0.00 | 87 | |
| 20260506102400 | 88 | 119 | 5.0 | 7.0 | 0.00 | 0.00 | 0.00 | 87 | |
| 20260506101900 | 88 | 68 | 7.0 | 13.0 | 0.00 | 0.00 | 0.00 | 87 | |
| 20260506101400 | 89 | 85 | 5.0 | 8.0 | 0.00 | 0.00 | 0.00 | 88 | |
| 20260506100900 | 89 | 124 | 5.0 | 8.0 | 0.00 | 0.00 | 0.00 | 88 | |
| 20260506100401 | 89 | 147 | 3.0 | 6.0 | 0.00 | 0.00 | 0.00 | 88 | |
| 20260506095904 | 89 | 119 | 3.0 | 5.0 | 0.00 | 0.00 | 0.00 | 88 | |
| 20260506095400 | 89 | 99 | 4.0 | 7.0 | 0.00 | 0.00 | 0.00 | 88 | |
| 20260506094901 | 89 | 102 | 4.0 | 5.0 | 0.00 | 0.00 | 0.00 | 88 | |
| 20260506094400 | 89 | 109 | 4.0 | 6.0 | 0.00 | 0.00 | 0.00 | 87 | |
| 20260506093901 | 90 | 74 | 5.0 | 7.0 | 0.00 | 0.00 | 0.00 | 86 | |
| 20260506093401 | 89 | 18 | 4.0 | 6.0 | 0.00 | 0.00 | 0.00 | 86 | |
| 20260506092901 | 90 | 174 | 4.0 | 6.0 | 0.00 | 0.00 | 0.00 | 86 | |
| 20260506092401 | 90 | 125 | 1.0 | 1.0 | 0.00 | 0.00 | 0.00 | 86 | |
| 20260506091901 | 90 | 103 | 2.0 | 3.0 | 0.00 | 0.00 | 0.00 | 86 | |
| 20260506091401 | 90 | 124 | 4.0 | 7.0 | 0.00 | 0.00 | 0.00 | 85 | |
| 20260506090901 | 89 | 135 | 6.0 | 9.0 | 0.00 | 0.00 | 0.00 | 86 | |
| 20260506090400 | 89 | 8 | 6.0 | 8.0 | 0.00 | 0.00 | 0.00 | 86 | |
| 20260506085901 | 90 | 170 | 3.0 | 6.0 | 0.00 | 0.00 | 0.00 | 86 | |
| 20260506085401 | 90 | 127 | 6.0 | 9.0 | 0.00 | 0.00 | 0.00 | 84 | |
| 20260506084900 | 90 | 83 | 6.0 | 9.0 | 0.00 | 0.00 | 0.00 | 83 | |
| 20260506084401 | 90 | 110 | 3.0 | 7.0 | 0.00 | 0.00 | 0.00 | 85 | |
| 20260506083900 | 90 | 155 | 5.0 | 8.0 | 0.00 | 0.00 | 0.00 | 85 | |
| 20260506083400 | 90 | 123 | 5.0 | 9.0 | 0.00 | 0.00 | 0.00 | 85 | |
| 20260506082900 | 91 | 207 | 6.0 | 11.0 | 0.00 | 0.00 | 0.00 | 84 | |
| 20260506082400 | 91 | 134 | 5.0 | 7.0 | 0.00 | 0.00 | 0.00 | 83 | |
| 20260506081901 | 90 | 117 | 3.0 | 6.0 | 0.00 | 0.00 | 0.00 | 83 | |
| 20260506081401 | 90 | 139 | 3.0 | 5.0 | 0.00 | 0.00 | 0.00 | 84 | |
| 20260506080901 | 91 | 133 | 4.0 | 5.0 | 0.00 | 0.00 | 0.00 | 83 | |
| 20260506080401 | 91 | 51 | 3.0 | 5.0 | 0.00 | 0.00 | 0.00 | 83 | |
| 20260506073401 | 89 | 115 | 3.0 | 5.0 | 0.00 | 0.00 | 0.00 | 84 | |
| 20260506072901 | 89 | 126 | 1.0 | 2.0 | 0.00 | 0.00 | 0.00 | 84 | |
| 20260506072400 | 90 | 107 | 2.0 | 3.0 | 0.00 | 0.00 | 0.00 | 84 | |
| 20260506071900 | 90 | 108 | 4.0 | 6.0 | 0.00 | 0.00 | 0.00 | 83 | |
| 20260506071401 | 91 | 14 | 3.0 | 5.0 | 0.00 | 0.00 | 0.00 | 82 | |
| 20260506070900 | 92 | 119 | 3.0 | 5.0 | 0.00 | 0.00 | 0.00 | 82 | |
| 20260506070401 | 91 | 133 | 4.0 | 6.0 | 0.00 | 0.00 | 0.00 | 81 | |
| 20260506062401 | 91 | 107 | 4.0 | 6.0 | 0.00 | 0.00 | 0.00 | 83 | |
| 20260506061900 | 91 | 125 | 2.0 | 5.0 | 0.00 | 0.00 | 0.00 | 83 | |
| 20260506061400 | 91 | 130 | 5.0 | 6.0 | 0.00 | 0.00 | 0.00 | 83 | |
| 20260506060901 | 91 | 74 | 1.0 | 2.0 | 0.00 | 0.00 | 0.00 | 83 | |
| 20260506060400 | 92 | 125 | 3.0 | 3.0 | 0.00 | 0.00 | 0.00 | 82 | |
| 20260506051400 | 91 | 141 | 3.0 | 5.0 | 0.00 | 0.00 | 0.00 | 81 | |
| 20260506050900 | 92 | 120 | 3.0 | 5.0 | 0.00 | 0.00 | 0.00 | 81 | |
| 20260506050400 | 91 | 83 | 1.0 | 2.0 | 0.00 | 0.00 | 0.00 | 82 | |
| 20260506044900 | 93 | 111 | 3.0 | 3.0 | 0.00 | 0.00 | 0.00 | 79 | |
| 20260506044400 | 93 | 106 | 1.0 | 2.0 | 0.00 | 0.00 | 0.00 | 80 | |
| 20260506043900 | 91 | 46 | 0.0 | 1.0 | 0.00 | 0.00 | 0.00 | 81 | |
| 20260506043401 | 92 | 78 | 1.0 | 1.0 | 0.00 | 0.00 | 0.00 | 80 | |
| 20260506042900 | 92 | 22 | 2.0 | 2.0 | 0.00 | 0.00 | 0.00 | 81 | |
| 20260506042400 | 91 | 153 | 2.0 | 2.0 | 0.00 | 0.00 | 0.00 | 82 | |
| 20260506041900 | 91 | 244 | 1.0 | 1.0 | 0.00 | 0.00 | 0.00 | 82 | |
| 20260506041400 | 91 | 99 | 1.0 | 1.0 | 0.00 | 0.00 | 0.00 | 83 | |
| 20260506040900 | 90 | 145 | 1.0 | 1.0 | 0.00 | 0.00 | 0.00 | 85 | |
| 20260506040403 | 90 | 223 | 5.0 | 6.0 | 0.00 | 0.00 | 0.00 | 85 | |
| 20260506035900 | 90 | 204 | 3.0 | 3.0 | 0.00 | 0.00 | 0.00 | 85 | |
| 20260506035400 | 90 | 74 | 0.0 | 0.0 | 0.00 | 0.00 | 0.00 | 86 | |
| 20260506034901 | 88 | 238 | 2.0 | 2.0 | 0.00 | 0.00 | 0.00 | 88 | |
| 20260506034400 | 88 | 208 | 2.0 | 2.0 | 0.00 | 0.00 | 0.00 | 88 | |
| 20260506033901 | 89 | 344 | 1.0 | 1.0 | 0.00 | 0.00 | 0.00 | 88 | |
| 20260506033400 | 89 | 252 | 2.0 | 2.0 | 0.00 | 0.00 | 0.00 | 88 | |
| 20260506032900 | 88 | 155 | 1.0 | 1.0 | 0.00 | 0.00 | 0.00 | 88 | |
| 20260506032400 | 88 | 201 | 3.0 | 3.0 | 0.00 | 0.00 | 0.00 | 88 | |
| 20260506031900 | 88 | 204 | 2.0 | 2.0 | 0.00 | 0.00 | 0.00 | 88 | |
| 20260506031400 | 89 | 252 | 3.0 | 5.0 | 0.00 | 0.00 | 0.00 | 88 | |
| 20260506030901 | 88 | 98 | 1.0 | 1.0 | 0.00 | 0.00 | 0.00 | 89 | |
| 20260506030400 | 88 | 133 | 1.0 | 1.0 | 0.00 | 0.00 | 0.00 | 89 | |
| 20260506025901 | 88 | 114 | 2.0 | 2.0 | 0.00 | 0.00 | 0.00 | 90 | |
| 20260506025400 | 88 | 122 | 2.0 | 2.0 | 0.00 | 0.00 | 0.00 | 91 | |
| 20260506024900 | 87 | 128 | 0.0 | 1.0 | 0.00 | 0.00 | 0.00 | 92 | |
| 20260506024400 | 87 | 117 | 2.0 | 2.0 | 0.00 | 0.00 | 0.00 | 93 | |
| 20260506023900 | 86 | 152 | 4.0 | 6.0 | 0.00 | 0.00 | 0.00 | 93 | |
| 20260506023400 | 86 | 67 | 1.0 | 1.0 | 0.00 | 0.00 | 0.00 | 94 | |
| 20260506022900 | 86 | 244 | 2.0 | 2.0 | 0.00 | 0.00 | 0.00 | 94 | |
| 20260506022401 | 86 | 189 | 3.0 | 3.0 | 0.00 | 0.00 | 0.00 | 95 | |
| 20260506021901 | 85 | 145 | 2.0 | 3.0 | 0.00 | 0.00 | 0.00 | 95 | |
| 20260506021403 | 85 | 83 | 1.0 | 1.0 | 0.00 | 0.00 | 0.00 | 96 | |
| 20260506020900 | 85 | 37 | 1.0 | 1.0 | 0.00 | 0.00 | 0.00 | 97 | |
| 20260506020400 | 85 | 193 | 3.0 | 5.0 | 0.00 | 0.00 | 0.00 | 97 | |
| 20260506015900 | 84 | 201 | 2.0 | 3.0 | 0.00 | 0.00 | 0.00 | 97 | |
| 20260506015401 | 84 | 69 | 1.0 | 1.0 | 0.00 | 0.00 | 0.00 | 98 | |
| 20260506014900 | 84 | 75 | 0.0 | 0.0 | 0.00 | 0.00 | 0.00 | 98 | |
| 20260506014400 | 84 | 194 | 2.0 | 3.0 | 0.00 | 0.00 | 0.00 | 98 | |
| 20260506013900 | 84 | 229 | 1.0 | 2.0 | 0.00 | 0.00 | 0.00 | 99 | |
| 20260506013400 | 84 | 204 | 2.0 | 3.0 | 0.00 | 0.00 | 0.00 | 99 | |
| 20260506012900 | 83 | 131 | 1.0 | 1.0 | 0.00 | 0.00 | 0.00 | 99 | |
| 20260506012400 | 83 | 91 | 0.0 | 1.0 | 0.00 | 0.00 | 0.00 | 99 | |
| 20260506011901 | 83 | 113 | 0.0 | 1.0 | 0.00 | 0.00 | 0.00 | 99 | |
| 20260506011401 | 83 | 87 | 0.0 | 0.0 | 0.00 | 0.00 | 0.00 | 99 | |
| 20260506010901 | 83 | 178 | 1.0 | 1.0 | 0.00 | 0.00 | 0.00 | 99 | |
| 20260506010400 | 82 | 220 | 2.0 | 2.0 | 0.00 | 0.00 | 0.00 | 99 | |
| 20260506005902 | 82 | 350 | 1.0 | 2.0 | 0.00 | 0.00 | 0.00 | 99 | |
| 20260506005401 | 82 | 226 | 0.0 | 0.0 | 0.00 | 0.00 | 0.00 | 99 | |
| 20260506004900 | 82 | 69 | 0.0 | 0.0 | 0.00 | 0.00 | 0.00 | 99 | |
| 20260506004401 | 82 | 58 | 0.0 | 0.0 | 0.00 | 0.00 | 0.00 | 99 | |
| 20260506003902 | 82 | 231 | 2.0 | 2.0 | 0.00 | 0.00 | 0.00 | 99 | |
| 20260506003401 | 82 | 176 | 2.0 | 2.0 | 0.00 | 0.00 | 0.00 | 99 | |
| 20260506002900 | 82 | 170 | 0.0 | 0.0 | 0.00 | 0.00 | 0.00 | 99 | |
| 20260506002400 | 82 | 237 | 2.0 | 2.0 | 0.00 | 0.00 | 0.00 | 99 | |
| 20260506001900 | 82 | 176 | 1.0 | 2.0 | 0.00 | 0.00 | 0.00 | 99 | |
| 20260506001400 | 82 | 165 | 1.0 | 2.0 | 0.00 | 0.00 | 0.00 | 99 |